�������l�o���
Date,Time,MP-1(��Sv/h),MP-2(��Sv/h),MP-3(��Sv/h),MP-4(��Sv/h),MP-5(��Sv/h),MP-6(��Sv/h),MP-7(��Sv/h),MP-8(��Sv/h),����,����(m/s),���J
2020/04/05,00:00,0.685,0.978,0.660,1.180,0.848,0.395,0.689,0.653,�k,5.3,��
2020/04/05,00:10,0.685,0.978,0.660,1.179,0.846,0.396,0.687,0.653,�k�k��,5.4,��
2020/04/05,00:20,0.685,0.978,0.660,1.182,0.848,0.395,0.688,0.653,�k�k��,4.7,��
2020/04/05,00:30,0.685,0.979,0.660,1.181,0.846,0.395,0.686,0.654,�k�k��,4.9,��
2020/04/05,00:40,0.685,0.980,0.661,1.181,0.850,0.393,0.687,0.653,�k�k��,3.0,��
2020/04/05,00:50,0.684,0.977,0.660,1.181,0.847,0.395,0.687,0.653,�k�k��,3.3,��
2020/04/05,01:00,0.684,0.980,0.660,1.181,0.848,0.395,0.686,0.653,�k�k��,3.0,��
2020/04/05,01:10,0.685,0.977,0.660,1.182,0.850,0.395,0.688,0.655,�k�k��,2.9,��
2020/04/05,01:20,0.684,0.980,0.659,1.182,0.848,0.394,0.687,0.655,�k,2.8,��
2020/04/05,01:30,0.685,0.976,0.661,1.182,0.846,0.394,0.687,0.653,�k�k��,2.6,��
2020/04/05,01:40,0.685,0.978,0.659,1.179,0.848,0.396,0.689,0.654,�k�k��,3.1,��
2020/04/05,01:50,0.683,0.977,0.659,1.180,0.848,0.395,0.687,0.652,�k��,3.4,��
2020/04/05,02:00,0.684,0.980,0.661,1.182,0.846,0.396,0.686,0.655,�k��,3.4,��
2020/04/05,02:10,0.683,0.976,0.660,1.182,0.848,0.394,0.688,0.654,�k��,3.4,��
2020/04/05,02:20,0.685,0.976,0.662,1.182,0.846,0.395,0.687,0.654,���k��,4.1,��
2020/04/05,02:30,0.684,0.978,0.660,1.183,0.848,0.394,0.688,0.654,���k��,5.2,��
2020/04/05,02:40,0.687,0.977,0.659,1.183,0.847,0.394,0.687,0.654,���k��,4.0,��
2020/04/05,02:50,0.683,0.978,0.661,1.183,0.846,0.394,0.688,0.654,�k��,3.6,��
2020/04/05,03:00,0.683,0.978,0.661,1.181,0.848,0.394,0.688,0.654,�k��,3.7,��
2020/04/05,03:10,0.684,0.979,0.659,1.183,0.847,0.394,0.687,0.652,�k��,3.9,��
2020/04/05,03:20,0.683,0.979,0.660,1.180,0.847,0.393,0.687,0.652,�k��,3.9,��
2020/04/05,03:30,0.684,0.979,0.660,1.181,0.850,0.393,0.687,0.654,�k��,5.2,��
2020/04/05,03:40,0.684,0.978,0.660,1.181,0.848,0.394,0.687,0.653,�k��,5.7,��
2020/04/05,03:50,0.684,0.979,0.661,1.186,0.847,0.393,0.685,0.655,�k�k��,6.0,��
2020/04/05,04:00,0.685,0.979,0.661,1.183,0.848,0.395,0.687,0.654,�k�k��,4.9,��
2020/04/05,04:10,0.684,0.979,0.660,1.182,0.847,0.394,0.686,0.653,�k�k��,4.9,��
2020/04/05,04:20,0.685,0.979,0.659,1.184,0.849,0.393,0.685,0.654,�k�k��,5.9,��
2020/04/05,04:30,0.684,0.978,0.660,1.184,0.847,0.393,0.687,0.654,�k�k��,7.2,��
2020/04/05,04:40,0.684,0.978,0.661,1.183,0.848,0.393,0.685,0.653,�k�k��,6.6,��
2020/04/05,04:50,0.684,0.982,0.660,1.184,0.847,0.395,0.688,0.656,�k�k��,6.5,��
2020/04/05,05:00,0.683,0.980,0.661,1.183,0.846,0.393,0.689,0.654,�k�k��,5.4,��
2020/04/05,05:10,0.683,0.975,0.661,1.185,0.849,0.393,0.685,0.653,�k�k��,5.6,��
2020/04/05,05:20,0.683,0.979,0.660,1.182,0.849,0.394,0.685,0.652,�k�k��,5.7,�L
2020/04/05,05:30,0.683,0.979,0.659,1.184,0.849,0.393,0.685,0.655,�k�k��,5.6,�L
2020/04/05,05:40,0.685,0.979,0.660,1.183,0.849,0.393,0.686,0.654,�k�k��,6.0,�L
2020/04/05,05:50,0.683,0.979,0.660,1.182,0.849,0.395,0.688,0.655,�k�k��,5.5,�L
2020/04/05,06:00,0.684,0.978,0.660,1.183,0.850,0.394,0.687,0.655,�k�k��,5.0,��
2020/04/05,06:10,0.686,0.978,0.660,1.184,0.848,0.394,0.687,0.654,�k�k��,4.7,�L
2020/04/05,06:20,0.683,0.979,0.661,1.186,0.848,0.393,0.687,0.653,�k��,5.2,�L
2020/04/05,06:30,0.683,0.977,0.661,1.186,0.847,0.395,0.687,0.655,�k�k��,3.8,�L
2020/04/05,06:40,0.684,0.977,0.660,1.185,0.847,0.395,0.686,0.653,�k�k��,6.3,�L
2020/04/05,06:50,0.684,0.978,0.658,1.187,0.845,0.395,0.687,0.654,�k�k��,4.9,�L
2020/04/05,07:00,0.683,0.975,0.660,1.183,0.848,0.393,0.688,0.654,�k�k��,4.7,�L
2020/04/05,07:10,0.685,0.976,0.661,1.186,0.848,0.392,0.688,0.653,�k�k��,5.7,�L
2020/04/05,07:20,0.683,0.976,0.660,1.184,0.848,0.393,0.687,0.652,�k�k��,7.0,��
2020/04/05,07:30,0.683,0.975,0.659,1.184,0.847,0.394,0.688,0.654,�k�k��,5.9,�L
2020/04/05,07:40,0.683,0.977,0.661,1.186,0.845,0.393,0.687,0.653,�k�k��,5.2,��
2020/04/05,07:50,0.684,0.978,0.661,1.185,0.845,0.394,0.687,0.652,�k,6.3,�L
2020/04/05,08:00,0.684,0.976,0.660,1.185,0.848,0.392,0.688,0.655,�k,5.2,�L
2020/04/05,08:10,0.683,0.977,0.659,1.188,0.847,0.394,0.687,0.653,�k,4.7,�L
2020/04/05,08:20,0.682,0.977,0.659,1.185,0.846,0.392,0.687,0.653,�k,5.2,�L
2020/04/05,08:30,0.684,0.978,0.660,1.184,0.848,0.394,0.687,0.653,�k,5.8,�L
2020/04/05,08:40,0.682,0.977,0.661,1.185,0.847,0.393,0.687,0.653,�k,5.1,�L
2020/04/05,08:50,0.683,0.978,0.659,1.183,0.847,0.392,0.685,0.654,�k,5.2,�L
2020/04/05,09:00,0.683,0.978,0.662,1.184,0.848,0.395,0.687,0.653,�k,6.4,�L
2020/04/05,09:10,0.683,0.976,0.661,1.184,0.848,0.396,0.687,0.653,�k,5.8,�L
2020/04/05,09:20,0.684,0.981,0.660,1.186,0.848,0.394,0.686,0.654,�k,5.9,�L
2020/04/05,09:30,0.683,0.977,0.661,1.185,0.847,0.395,0.686,0.654,�k,4.6,�L
2020/04/05,09:40,0.682,0.979,0.662,1.185,0.848,0.395,0.687,0.654,�k,4.8,�L
2020/04/05,09:50,0.684,0.980,0.659,1.184,0.848,0.395,0.686,0.654,�k,4.7,�L
2020/04/05,10:00,0.683,0.978,0.661,1.185,0.848,0.394,0.686,0.656,�k�k��,5.1,�L
2020/04/05,10:10,0.685,0.976,0.662,1.188,0.849,0.396,0.686,0.654,�k�k��,4.4,�L
2020/04/05,10:20,0.686,0.974,0.659,1.188,0.847,0.397,0.683,0.653,�k�k��,4.3,�L
2020/04/05,10:30,0.684,0.977,0.661,1.188,0.847,0.397,0.686,0.653,�k,3.4,�L
2020/04/05,10:40,0.683,0.975,0.660,1.186,0.845,0.398,0.683,0.652,�k,2.8,�L
2020/04/05,10:50,0.683,0.973,0.659,1.183,0.847,0.397,0.684,0.652,�k��,2.6,�L
2020/04/05,11:00,0.681,0.970,0.657,1.183,0.841,0.398,0.684,0.652,�k��,2.5,�L
2020/04/05,11:10,0.680,0.967,0.658,1.181,0.842,0.397,0.682,0.652,�k�k��,2.2,�L
2020/04/05,11:20,0.680,0.964,0.658,1.180,0.838,0.396,0.685,0.651,�k�k��,4.2,�L
2020/04/05,11:30,0.679,0.965,0.657,1.177,0.840,0.396,0.682,0.649,�k�k��,3.2,�L
2020/04/05,11:40,0.678,0.963,0.656,1.175,0.839,0.395,0.681,0.650,�k�k��,3.0,�L
2020/04/05,11:50,0.679,0.962,0.657,1.177,0.837,0.395,0.680,0.651,�k�k��,3.0,�L
2020/04/05,12:00,0.677,0.961,0.655,1.173,0.836,0.398,0.681,0.650,�k�k��,2.6,�L
2020/04/05,12:10,0.675,0.958,0.655,1.173,0.837,0.394,0.681,0.650,�k�k��,2.3,�L
2020/04/05,12:20,0.676,0.956,0.654,1.172,0.835,0.395,0.680,0.650,�k��,0.9,�L
2020/04/05,12:30,0.677,0.959,0.655,1.170,0.835,0.395,0.679,0.650,�k,0.8,�L
2020/04/05,12:40,0.675,0.958,0.652,1.171,0.835,0.393,0.681,0.650,�k�k��,1.5,�L
2020/04/05,12:50,0.673,0.958,0.653,1.169,0.834,0.392,0.681,0.649,�k�k��,1.5,�L
2020/04/05,13:00,0.676,0.958,0.652,1.168,0.834,0.394,0.680,0.647,�k�k��,1.7,�L
2020/04/05,13:10,0.674,0.957,0.652,1.169,0.832,0.392,0.681,0.648,�k�k��,1.5,�L
2020/04/05,13:20,0.675,0.959,0.651,1.171,0.833,0.392,0.680,0.648,�k,2.0,�L
2020/04/05,13:30,0.674,0.959,0.651,1.169,0.831,0.390,0.682,0.647,�k�k��,2.0,�L
2020/04/05,13:40,0.675,0.960,0.651,1.170,0.832,0.391,0.680,0.648,�k�k��,1.7,�L
2020/04/05,13:50,0.673,0.957,0.651,1.169,0.831,0.391,0.680,0.648,�k�k��,3.7,�L
2020/04/05,14:00,0.673,0.958,0.651,1.168,0.832,0.391,0.679,0.648,�k�k��,3.6,�L
2020/04/05,14:10,0.672,0.957,0.648,1.167,0.831,0.390,0.679,0.648,�k�k��,3.3,�L
2020/04/05,14:20,0.673,0.958,0.650,1.169,0.832,0.391,0.680,0.649,�k,4.5,�L
2020/04/05,14:30,0.673,0.958,0.652,1.169,0.833,0.391,0.679,0.648,�k,2.6,�L
2020/04/05,14:40,0.672,0.959,0.650,1.170,0.833,0.392,0.680,0.646,�k�k��,2.6,�L
2020/04/05,14:50,0.671,0.956,0.651,1.169,0.832,0.391,0.680,0.647,�k,2.0,��
2020/04/05,15:00,0.673,0.960,0.650,1.171,0.832,0.390,0.680,0.648,�k��,2.6,��
2020/04/05,15:10,0.675,0.957,0.651,1.168,0.834,0.391,0.681,0.648,�k�k��,2.5,��
2020/04/05,15:20,0.674,0.960,0.651,1.169,0.832,0.391,0.680,0.649,��,2.8,��
2020/04/05,15:30,0.674,0.960,0.652,1.168,0.835,0.390,0.682,0.649,���쓌,3.5,��
2020/04/05,15:40,0.675,0.960,0.650,1.170,0.834,0.392,0.680,0.650,���쓌,3.9,��
2020/04/05,15:50,0.673,0.962,0.652,1.170,0.835,0.391,0.680,0.651,�쓌,4.9,��
2020/04/05,16:00,0.677,0.961,0.651,1.172,0.836,0.391,0.682,0.650,�쓌,3.9,��
2020/04/05,16:10,0.674,0.963,0.652,1.171,0.836,0.391,0.681,0.649,�쓌,4.3,��
2020/04/05,16:20,0.677,0.962,0.651,1.174,0.834,0.390,0.680,0.649,��쓌,4.8,��
2020/04/05,16:30,0.676,0.961,0.651,1.171,0.835,0.392,0.681,0.649,��쓌,4.3,��
2020/04/05,16:40,0.676,0.963,0.652,1.170,0.835,0.391,0.679,0.649,��쓌,4.3,��
2020/04/05,16:50,0.676,0.963,0.652,1.173,0.834,0.390,0.680,0.649,��쓌,5.0,��
2020/04/05,17:00,0.674,0.962,0.652,1.172,0.835,0.391,0.678,0.649,��,3.8,��
2020/04/05,17:10,0.674,0.963,0.653,1.171,0.836,0.392,0.680,0.650,��쓌,3.9,��
2020/04/05,17:20,0.678,0.965,0.652,1.172,0.833,0.392,0.681,0.651,��쓌,3.8,��
2020/04/05,17:30,0.675,0.963,0.652,1.172,0.834,0.393,0.680,0.649,��쓌,2.9,��
2020/04/05,17:40,0.675,0.966,0.652,1.173,0.834,0.392,0.682,0.650,��쓌,2.2,��
2020/04/05,17:50,0.677,0.964,0.653,1.170,0.836,0.391,0.682,0.651,�쓌,0.9,��
2020/04/05,18:00,0.676,0.966,0.655,1.172,0.838,0.392,0.681,0.648,��,1.2,��
2020/04/05,18:10,0.675,0.966,0.652,1.171,0.836,0.392,0.681,0.649,�k��,4.0,��
2020/04/05,18:20,0.675,0.967,0.653,1.172,0.837,0.392,0.682,0.651,���k��,3.4,��
2020/04/05,18:30,0.676,0.967,0.650,1.173,0.837,0.392,0.682,0.649,���k��,4.3,��
2020/04/05,18:40,0.675,0.964,0.651,1.170,0.835,0.392,0.684,0.649,���k��,4.8,��
2020/04/05,18:50,0.675,0.967,0.654,1.172,0.837,0.392,0.683,0.649,���k��,4.9,��
2020/04/05,19:00,0.675,0.965,0.650,1.172,0.835,0.392,0.684,0.647,���k��,5.0,��
2020/04/05,19:10,0.675,0.964,0.651,1.173,0.837,0.392,0.682,0.651,���k��,5.3,��
2020/04/05,19:20,0.676,0.964,0.650,1.175,0.837,0.393,0.683,0.648,���k��,4.6,��
2020/04/05,19:30,0.674,0.965,0.652,1.173,0.835,0.392,0.682,0.650,��,5.3,��
2020/04/05,19:40,0.675,0.966,0.653,1.174,0.837,0.391,0.684,0.650,���k��,7.1,��
2020/04/05,19:50,0.674,0.963,0.653,1.175,0.838,0.392,0.684,0.650,���k��,8.4,��
2020/04/05,20:00,0.676,0.967,0.653,1.174,0.838,0.392,0.685,0.652,���k��,8.6,��
2020/04/05,20:10,0.675,0.965,0.654,1.173,0.837,0.392,0.683,0.650,���k��,7.3,��
2020/04/05,20:20,0.674,0.965,0.654,1.177,0.839,0.391,0.683,0.651,���k��,7.7,��
2020/04/05,20:30,0.675,0.965,0.651,1.174,0.837,0.393,0.684,0.649,���k��,6.5,��
2020/04/05,20:40,0.675,0.962,0.651,1.175,0.837,0.391,0.685,0.651,���k��,6.8,��
2020/04/05,20:50,0.676,0.965,0.654,1.173,0.837,0.392,0.684,0.649,��,4.9,��
2020/04/05,21:00,0.677,0.964,0.654,1.176,0.839,0.392,0.685,0.652,���k��,6.0,��
2020/04/05,21:10,0.676,0.965,0.651,1.174,0.838,0.392,0.683,0.650,���k��,6.3,��
2020/04/05,21:20,0.676,0.965,0.652,1.177,0.837,0.392,0.686,0.649,�k��,7.0,��
2020/04/05,21:30,0.674,0.963,0.654,1.174,0.839,0.392,0.685,0.651,���k��,6.1,��
2020/04/05,21:40,0.677,0.966,0.652,1.175,0.838,0.391,0.684,0.651,���k��,6.4,��
2020/04/05,21:50,0.675,0.965,0.651,1.175,0.836,0.392,0.685,0.651,��,6.6,��
2020/04/05,22:00,0.676,0.964,0.651,1.177,0.836,0.393,0.683,0.651,��,6.3,��
2020/04/05,22:10,0.675,0.965,0.653,1.177,0.838,0.392,0.684,0.649,��,7.8,��
2020/04/05,22:20,0.674,0.965,0.653,1.176,0.838,0.392,0.683,0.648,��,7.6,��
2020/04/05,22:30,0.674,0.966,0.653,1.179,0.839,0.391,0.683,0.650,���k��,6.4,��
2020/04/05,22:40,0.676,0.962,0.654,1.178,0.839,0.391,0.684,0.651,���k��,7.6,��
2020/04/05,22:50,0.677,0.962,0.657,1.178,0.838,0.392,0.685,0.650,��,5.9,��
2020/04/05,23:00,0.675,0.967,0.655,1.177,0.838,0.391,0.683,0.652,��,5.2,��
2020/04/05,23:10,0.675,0.965,0.655,1.177,0.839,0.393,0.685,0.652,��,7.8,��
2020/04/05,23:20,0.676,0.963,0.652,1.174,0.838,0.392,0.682,0.653,���쐼,6.3,��
2020/04/05,23:30,0.676,0.964,0.654,1.176,0.838,0.394,0.683,0.650,���쐼,5.3,��
2020/04/05,23:40,0.677,0.964,0.652,1.177,0.840,0.393,0.683,0.651,���쐼,4.7,��
2020/04/05,23:50,0.678,0.964,0.653,1.177,0.838,0.390,0.683,0.651,���쐼,4.5,��
